Flag for U.S.A. Weather past 2 weeks in Wheaton, Illinois, U.S.A.

Now
16 °F

Overcast.


Feels Like: 16 °F
Forecast: 18 / 25 °F
Wind: No wind

Location: Dupage Airport

Current Time: Jan 26, 2015 at 8:35:21 AM

Latest Report: Jan 26, 2015 at 7:52 AM


Visibility: 10 mi

Pressure: 30.00 "Hg

Humidity: 84%

Dew point: 12 °F

Location of WheatonLocation

Historic Weather in Wheaton — Graph

°F

Wheaton temperature yesterday

Maximum temperature yesterday: 33 °F (at 3:52 AM)
Minimum temperature yesterday: 15 °F (at 10:52 PM)
Average temperature yesterday: 28 °F

Past Weeks' High & Low Weather Summary

 TemperatureHumidityPressure
High41 °F (Jan 17, 11:52 AM)97% (Jan 20, 2:52 PM)30.74 "Hg (Jan 20, 2:52 PM)
Low-5 °F (Jan 14, 12:52 AM)51% (Jan 12, 3:52 PM)29.60 "Hg (Jan 17, 1:52 PM)
Average27 °F80%30.10 "Hg
* Reported Jan 11 6:52 AM — Jan 26 6:52 AM, Wheaton, Weather by CustomWeather, © 2014

Note: Actual official high and low records may vary slightly from our data, if they occured in-between our weather recording intervals... More about our weather records

Advertising

Wheaton weather history for previous 24 hours

 ConditionsComfort  
Time TempWeatherWind HumidityBarometerVisibility
6:52 AM
Jan 26
13 °FClear.No wind88%29.98 "Hg10 mi
5:52 AM14 °FClear.6 mph84%30.00 "Hg10 mi
4:52 AM14 °FClear.5 mph84%29.99 "Hg10 mi
3:52 AM15 °FPassing clouds.5 mph80%30.01 "Hg10 mi
2:52 AM16 °FOvercast.6 mph84%30.01 "Hg10 mi
1:52 AM16 °FPassing clouds.6 mph80%30.02 "Hg10 mi
12:52 AM19 °FOvercast.7 mph77%30.01 "Hg10 mi
11:52 PM
Jan 25
18 °FClear.8 mph77%30.01 "Hg10 mi
10:52 PM15 °FClear.7 mph83%30.01 "Hg10 mi
9:52 PM19 °FClear.9 mph77%30.02 "Hg10 mi
8:52 PM21 °FClear.10 mph74%30.00 "Hg10 mi
7:52 PM22 °FPassing clouds.13 mph72%29.99 "Hg10 mi
6:52 PM24 °FOvercast.13 mph71%29.98 "Hg10 mi
5:52 PM25 °FMostly cloudy.16 mph72%29.96 "Hg10 mi
4:52 PM26 °FMore clouds than sun.21 mph71%29.94 "Hg10 mi
3:52 PM27 °FOvercast.22 mph69%29.90 "Hg10 mi
2:52 PM28 °FMostly cloudy.23 mph69%29.87 "Hg10 mi
1:52 PM28 °FLight snow. Overcast.23 mph78%29.83 "Hg5 mi
12:52 PM29 °FLight snow. Overcast.22 mph82%29.82 "Hg4 mi
11:52 AM30 °FLight snow. Ice fog.24 mph85%29.81 "Hg3 mi
10:52 AM31 °FLight snow. Ice fog.20 mph89%29.80 "Hg2 mi
9:52 AM31 °FLight snow. Ice fog.17 mph92%29.78 "Hg1 mi
8:52 AM31 °FLight snow. Ice fog.17 mph89%29.77 "Hg1 mi
8:00 AM31 °FLight snow. Ice fog.20 mph89%29.73 "Hg2 mi
Weather by CustomWeather, © 2014

See weather overviewHow to use our weather pages